Location: Newark
(51.2625°N, 13.3939°E)
Time: 12:29:34
(UTC+00:00)

Explorer 7 - Pass Details

Date: 20 November 2019
Orbit: 485 x 679 km, 50.3° (Epoch: 15 December)

Event Time Altitude Azimuth Distance (km) Brightness Sun altitude
Rises 21:35:53 0° 195° (SSW) 2,973 - -55.1°
Reaches altitude 10° 21:39:08 10° 173° (S) 2,035 - -55.4°
Maximum altitude 21:41:48 15° 138° (SE) 1,688 - -55.6°
Drops below altitude 10° 21:44:25 10° 103° (ESE) 1,977 - -55.8°
Sets 21:47:29 0° 80° (E) 2,841 - -56.1°
